Hourly Weather Kozlyatskoe

Today, 30 October, Friday

Time Temperature Precipitation Wind Pressure Humidity
00:00 +3°C° 0 mm 3 mps 752 mmHg 70%
01:00 +3°C° 0 mm 3 mps 752 mmHg 73%
02:00 +3°C° 0 mm 3 mps 752 mmHg 75%
03:00 +3°C° 0 mm 3 mps 752 mmHg 78%
04:00 +3°C° 0 mm 3 mps 751 mmHg 79%
05:00 +3°C° 0 mm 3 mps 751 mmHg 79%
06:00 +4°C° 0 mm 4 mps 750 mmHg 79%
07:00 +4°C° 0 mm 4 mps 750 mmHg 81%
08:00 +4°C° 0 mm 4 mps 750 mmHg 83%
09:00 +4°C° 0 mm 4 mps 751 mmHg 86%
10:00 +4°C° 0 mm 4 mps 750 mmHg 82%
11:00 +5°C° 0 mm 4 mps 750 mmHg 78%
12:00 +5°C° 0 mm 4 mps 750 mmHg 75%
13:00 +5°C° 0 mm 4 mps 750 mmHg 74%
14:00 +5°C° 0 mm 4 mps 750 mmHg 74%
15:00 +5°C° 0 mm 4 mps 750 mmHg 73%
16:00 +5°C° 0 mm 4 mps 749 mmHg 73%
17:00 +5°C° 0 mm 4 mps 749 mmHg 72%
18:00 +5°C° 0 mm 4 mps 749 mmHg 71%
19:00 +5°C° 0 mm 4 mps 749 mmHg 76%
20:00 +5°C° 0 mm 4 mps 749 mmHg 80%
21:00 +4°C° 0 mm 4 mps 749 mmHg 85%
22:00 +4°C° 0.2 mm 3 mps 749 mmHg 87%
23:00 +4°C° 0.2 mm 3 mps 748 mmHg 90%

Tomorrow, 31 October, Saturday

Time Temperature Precipitation Wind Pressure Humidity
00:00 +4°C° 0.2 mm 3 mps 748 mmHg 93%
01:00 +5°C° 0.5 mm 3 mps 748 mmHg 94%
02:00 +5°C° 0.5 mm 3 mps 748 mmHg 94%
03:00 +6°C° 0.5 mm 2 mps 748 mmHg 95%
04:00 +6°C° 0.4 mm 2 mps 748 mmHg 95%
05:00 +6°C° 0.4 mm 2 mps 747 mmHg 95%
06:00 +6°C° 0.4 mm 2 mps 747 mmHg 95%
07:00 +6°C° 0.1 mm 2 mps 747 mmHg 94%
08:00 +6°C° 0.1 mm 2 mps 747 mmHg 92%
09:00 +6°C° 0.1 mm 2 mps 747 mmHg 91%
10:00 +7°C° 0 mm 2 mps 748 mmHg 88%
11:00 +7°C° 0 mm 2 mps 748 mmHg 84%
12:00 +8°C° 0 mm 2 mps 748 mmHg 81%
13:00 +7°C° 0.1 mm 2 mps 748 mmHg 83%
14:00 +7°C° 0.1 mm 2 mps 748 mmHg 85%
15:00 +7°C° 0.1 mm 2 mps 748 mmHg 87%
16:00 +7°C° 0 mm 2 mps 748 mmHg 88%
17:00 +7°C° 0 mm 2 mps 749 mmHg 88%
18:00 +7°C° 0 mm 2 mps 749 mmHg 89%
19:00 +7°C° 0.1 mm 2 mps 749 mmHg 89%
20:00 +7°C° 0.1 mm 2 mps 750 mmHg 89%
21:00 +7°C° 0.1 mm 3 mps 750 mmHg 89%
22:00 +5°C° 0 mm 3 mps 750 mmHg 90%
23:00 +5°C° 0 mm 3 mps 750 mmHg 90%

Day after tomorrow, 1 November, Sunday

Time Temperature Precipitation Wind Pressure Humidity
00:00 +5°C° 0 mm 3 mps 750 mmHg 90%
01:00 +5°C° 0 mm 3 mps 750 mmHg 91%
02:00 +5°C° 0 mm 4 mps 751 mmHg 91%
03:00 +5°C° 0 mm 4 mps 751 mmHg 91%
04:00 +5°C° 0 mm 4 mps 751 mmHg 92%
05:00 +5°C° 0 mm 3 mps 751 mmHg 93%
06:00 +5°C° 0 mm 3 mps 751 mmHg 93%
07:00 +5°C° 0 mm 3 mps 751 mmHg 92%
08:00 +5°C° 0 mm 4 mps 751 mmHg 91%
09:00 +5°C° 0 mm 4 mps 752 mmHg 90%
10:00 +6°C° 0 mm 4 mps 752 mmHg 88%
11:00 +7°C° 0 mm 4 mps 752 mmHg 85%
12:00 +7°C° 0 mm 4 mps 752 mmHg 83%
13:00 +7°C° 0 mm 5 mps 752 mmHg 83%
14:00 +7°C° 0 mm 5 mps 752 mmHg 83%
15:00 +8°C° 0 mm 5 mps 752 mmHg 83%
16:00 +7°C° 0 mm 5 mps 752 mmHg 84%
17:00 +7°C° 0 mm 4 mps 752 mmHg 86%
18:00 +7°C° 0 mm 4 mps 752 mmHg 87%
19:00 +6°C° 0.2 mm 4 mps 752 mmHg 88%
20:00 +6°C° 0.2 mm 4 mps 752 mmHg 89%
21:00 +6°C° 0.2 mm 4 mps 752 mmHg 89%
22:00 +6°C° 0.2 mm 4 mps 752 mmHg 90%
23:00 +6°C° 0.2 mm 4 mps 752 mmHg 91%

2 November, Monday

Time Temperature Precipitation Wind Pressure Humidity
00:00 +6°C° 0.2 mm 4 mps 752 mmHg 91%
01:00 +5°C° 0.1 mm 4 mps 752 mmHg 91%
02:00 +5°C° 0.1 mm 4 mps 752 mmHg 91%
03:00 +5°C° 0.1 mm 4 mps 752 mmHg 91%
04:00 +5°C° 0 mm 4 mps 752 mmHg 91%
05:00 +5°C° 0 mm 4 mps 752 mmHg 91%
06:00 +5°C° 0 mm 4 mps 752 mmHg 91%
07:00 +5°C° 0 mm 5 mps 752 mmHg 90%
08:00 +5°C° 0 mm 5 mps 753 mmHg 90%
09:00 +5°C° 0 mm 5 mps 753 mmHg 89%
10:00 +6°C° 0 mm 5 mps 753 mmHg 87%
11:00 +6°C° 0 mm 5 mps 753 mmHg 85%
12:00 +7°C° 0 mm 5 mps 753 mmHg 83%
13:00 +7°C° 0 mm 5 mps 753 mmHg 82%
14:00 +7°C° 0 mm 5 mps 753 mmHg 81%
15:00 +7°C° 0 mm 5 mps 753 mmHg 80%
16:00 +7°C° 0 mm 4 mps 753 mmHg 82%
17:00 +6°C° 0 mm 4 mps 753 mmHg 85%
18:00 +7°C° 0 mm 3 mps 753 mmHg 87%
19:00 +6°C° 0 mm 4 mps 754 mmHg 88%
20:00 +6°C° 0 mm 4 mps 754 mmHg 89%
21:00 +5°C° 0 mm 4 mps 754 mmHg 90%
22:00 +5°C° 0.3 mm 4 mps 754 mmHg 91%
23:00 +5°C° 0.3 mm 4 mps 754 mmHg 91%

3 November, Tuesday

Time Temperature Precipitation Wind Pressure Humidity
00:00 +5°C° 0.3 mm 4 mps 754 mmHg 91%
01:00 +5°C° 0.1 mm 4 mps 754 mmHg 92%
02:00 +5°C° 0.1 mm 4 mps 755 mmHg 93%
03:00 +4°C° 0.1 mm 3 mps 755 mmHg 93%
04:00 +4°C° 0 mm 4 mps 755 mmHg 93%
05:00 +4°C° 0 mm 4 mps 755 mmHg 93%
06:00 +4°C° 0 mm 4 mps 755 mmHg 93%
07:00 +4°C° 0 mm 4 mps 755 mmHg 91%
08:00 +5°C° 0 mm 4 mps 756 mmHg 90%
09:00 +5°C° 0 mm 4 mps 756 mmHg 88%
10:00 +6°C° 0 mm 4 mps 756 mmHg 85%
11:00 +7°C° 0 mm 3 mps 756 mmHg 81%
12:00 +8°C° 0 mm 3 mps 756 mmHg 77%
13:00 +8°C° 0 mm 3 mps 756 mmHg 77%
14:00 +8°C° 0 mm 3 mps 756 mmHg 76%
15:00 +9°C° 0 mm 3 mps 757 mmHg 76%
16:00 +8°C° 0.2 mm 3 mps 757 mmHg 80%
17:00 +8°C° 0.2 mm 3 mps 757 mmHg 83%
18:00 +7°C° 0.2 mm 3 mps 757 mmHg 87%
19:00 +7°C° 0 mm 2 mps 757 mmHg 87%
20:00 +7°C° 0 mm 2 mps 757 mmHg 86%
21:00 +6°C° 0 mm 2 mps 757 mmHg 86%
22:00 +6°C° 0 mm 2 mps 757 mmHg 85%
23:00 +6°C° 0 mm 2 mps 757 mmHg 85%

4 November, Wednesday

Time Temperature Precipitation Wind Pressure Humidity
00:00 +6°C° 0 mm 2 mps 757 mmHg 85%
01:00 +6°C° 0 mm 2 mps 757 mmHg 84%
02:00 +6°C° 0 mm 2 mps 757 mmHg 83%
03:00 +5°C° 0 mm 3 mps 757 mmHg 82%
04:00 +6°C° 0.1 mm 2 mps 757 mmHg 85%
05:00 +6°C° 0.1 mm 2 mps 757 mmHg 88%
06:00 +7°C° 0.1 mm 1 mps 757 mmHg 91%
07:00 +7°C° 0 mm 1 mps 757 mmHg 91%
08:00 +7°C° 0 mm 1 mps 757 mmHg 91%
09:00 +7°C° 0 mm 1 mps 757 mmHg 91%
10:00 +7°C° 0 mm 2 mps 758 mmHg 85%
11:00 +8°C° 0 mm 2 mps 758 mmHg 80%
12:00 +9°C° 0 mm 2 mps 758 mmHg 74%
13:00 +9°C° 0 mm 2 mps 758 mmHg 73%
14:00 +9°C° 0 mm 2 mps 758 mmHg 72%
15:00 +9°C° 0 mm 2 mps 757 mmHg 71%
16:00 +8°C° 0 mm 2 mps 757 mmHg 74%
17:00 +7°C° 0 mm 2 mps 757 mmHg 77%
18:00 +7°C° 0 mm 2 mps 757 mmHg 81%
19:00 +6°C° 0 mm 2 mps 758 mmHg 82%
20:00 +6°C° 0 mm 2 mps 758 mmHg 83%
21:00 +5°C° 0 mm 2 mps 758 mmHg 85%
22:00 +5°C° 0 mm 2 mps 758 mmHg 85%
23:00 +5°C° 0 mm 2 mps 757 mmHg 85%
Show more